Chino, CA

5:44 PM PDT on May 22, 2017 (GMT -0700)
Chino

Weather History for KCNO - May, 2014

Change the Weather History Date:

Friday, May 16, 2014

  Actual Average Record
Temperature  
Mean Temperature 77 °F -  
Max Temperature 100 °F 76 °F 100 °F (2008)
Min Temperature 55 °F 49 °F 43 °F (2011)
Cooling Degree Days 12    
Growing Degree Days 27 (Base 50)    
Moisture  
Dew Point 39 °F    
Average Humidity 30    
Maximum Humidity 67    
Minimum Humidity 8    
Precipitation  
Precipitation 0.00 in - - ()
Sea Level Pressure  
Sea Level Pressure 29.93 in    
Wind  
Wind Speed 4 mph (West)    
Max Wind Speed 16 mph    
Max Gust Speed 21 mph    
Visibility 8 miles    
Events      
Averages and records for this station are not official NWS values.
T = Trace of Precipitation, MM = Missing Value Source: NWS Daily Summary

Daily Weather History Graph

Daily Weather History Graph

Search for Another Location

Airport or City:

Trip Planner

Search our weather history database for the weather conditions in past years. The results will help you decide how hot, cold, wet, or windy it might be!

Date:

Astronomy

May. 16, 2014 Rise Set
Actual Time 5:48 AM PDT 7:45 PM PDT
Civil Twilight 5:20 AM PDT 8:13 PM PDT
Nautical Twilight 4:47 AM PDT 8:47 PM PDT
Astronomical Twilight 4:11 AM PDT 9:23 PM PDT
Moon 9:57 PM PDT (5/16) 7:34 AM PDT (5/16)
Length of Visible Light 14h 52m
Length of Day
13h 57m
Waning Gibbous, 95% of the Moon is Illuminated
May 16
Waning Gibbous
May 21
Last Quarter
May 28
New
Jun 5
First Quarter
Jun 12
Full

Hourly Weather History & Observations

Time (PDT) Temp. Dew Point Humidity Pressure Visibility Wind Dir Wind Speed Gust Speed Precip Events Conditions
1:53 AM 60.1 °F 43.0 °F 53% 29.97 in 6.0 mi Calm Calm - N/A   Haze
2:53 AM 61.0 °F 39.9 °F 46% 29.96 in 7.0 mi Calm Calm - N/A   Clear
3:53 AM 61.0 °F 43.0 °F 52% 29.96 in 5.0 mi Calm Calm - N/A   Haze
4:53 AM 60.1 °F 39.9 °F 47% 29.96 in 7.0 mi North 3.5 mph - N/A   Clear
5:53 AM 55.0 °F 39.0 °F 55% 29.98 in 5.0 mi Calm Calm - N/A   Haze
6:53 AM 60.1 °F 48.9 °F 67% 29.99 in 10.0 mi North - - N/A   Mostly Cloudy
7:53 AM 73.0 °F 45.0 °F 37% 29.99 in 10.0 mi Calm Calm - N/A   Mostly Cloudy
8:53 AM 80.1 °F 37.0 °F 21% 29.99 in 10.0 mi Calm Calm - N/A   Scattered Clouds
9:53 AM 84.9 °F 36.0 °F 17% 29.98 in 6.0 mi Calm Calm - N/A   Haze
10:53 AM 90.0 °F 32.0 °F 13% 29.97 in 5.0 mi Calm Calm - N/A   Haze
11:53 AM 95.0 °F 32.0 °F 11% 29.95 in 6.0 mi Calm Calm - N/A   Haze
12:53 PM 98.1 °F 28.0 °F 8% 29.93 in 6.0 mi SW 12.7 mph - N/A   Haze
1:53 PM 99.0 °F 28.9 °F 8% 29.92 in 7.0 mi WSW 15.0 mph - N/A   Scattered Clouds
2:53 PM 98.1 °F 30.9 °F 9% 29.91 in 10.0 mi SW 15.0 mph 20.7 mph N/A   Scattered Clouds
3:53 PM 97.0 °F 32.0 °F 10% 29.89 in 10.0 mi West 16.1 mph - N/A   Scattered Clouds
4:53 PM 95.0 °F 33.1 °F 11% 29.88 in 10.0 mi WSW 13.8 mph - N/A   Scattered Clouds
5:53 PM 91.9 °F 33.1 °F 12% 29.87 in 10.0 mi WSW 12.7 mph - N/A   Mostly Cloudy
6:53 PM 87.1 °F 39.0 °F 18% 29.88 in 10.0 mi WSW 10.4 mph - N/A   Scattered Clouds
7:53 PM 82.0 °F 37.9 °F 21% 29.89 in 8.0 mi West 10.4 mph - N/A   Mostly Cloudy
8:53 PM 78.1 °F 45.0 °F 31% 29.90 in 9.0 mi West 9.2 mph - N/A   Clear
9:53 PM 68.0 °F 51.1 °F 55% 29.91 in 8.0 mi Calm Calm - N/A   Clear
10:53 PM 71.1 °F 46.9 °F 42% 29.91 in 7.0 mi Calm Calm - N/A   Clear
11:53 PM 69.1 °F 48.0 °F 47% 29.91 in 7.0 mi North 3.5 mph - N/A   Clear